Data supplied by UK-AIR on 3/5/2019
All Data GMT hour ending 
Status: R =Ratified P=Provisional,P*=As supplied
,,Lullington Heath,,,,,,,,,,,,,,,,,,,,,,,
Date,time,"Nitric oxide",status,unit,"Nitrogen dioxide",status,unit,"Nitrogen oxides as nitrogen dioxide",status,unit,"Ozone",status,unit,"Sulphur dioxide",status,unit
 
01-01-2018,01:00,0.25677,R,ugm-3,0.13046,R,ugm-3,0.52416,R,ugm-3,85.07729,R,ugm-3,0.77417,R,ugm-3
01-01-2018,02:00,0.16048,R,ugm-3,0.09792,R,ugm-3,0.34398,R,ugm-3,83.95693,R,ugm-3,1.09673,R,ugm-3
01-01-2018,03:00,0.25677,R,ugm-3,-0.04972,R,ugm-3,0.34398,R,ugm-3,80.50832,R,ugm-3,0.70965,R,ugm-3
01-01-2018,04:00,0.28886,R,ugm-3,-0.29550,R,ugm-3,0.14742,R,ugm-3,80.40329,R,ugm-3,0.96771,R,ugm-3
01-01-2018,05:00,0.25677,R,ugm-3,-0.34457,R,ugm-3,0.04914,R,ugm-3,82.03131,R,ugm-3,0.64514,R,ugm-3
01-01-2018,06:00,0.35306,R,ugm-3,-0.24650,R,ugm-3,0.29484,R,ugm-3,84.60464,R,ugm-3,0.83868,R,ugm-3
01-01-2018,07:00,0.35306,R,ugm-3,0.09748,R,ugm-3,0.63882,R,ugm-3,85.97008,R,ugm-3,1.03222,R,ugm-3
01-01-2018,08:00,0.19258,R,ugm-3,0.98237,R,ugm-3,1.27764,R,ugm-3,84.02695,R,ugm-3,1.35479,R,ugm-3
01-01-2018,09:00,0.16048,R,ugm-3,2.16180,R,ugm-3,2.40787,R,ugm-3,78.61772,R,ugm-3,1.35479,R,ugm-3
01-01-2018,10:00,0.25677,R,ugm-3,0.58910,R,ugm-3,0.98280,R,ugm-3,80.87594,R,ugm-3,1.54833,R,ugm-3
01-01-2018,11:00,0.35306,R,ugm-3,0.49060,R,ugm-3,1.03194,R,ugm-3,81.19104,R,ugm-3,1.41930,R,ugm-3
01-01-2018,12:00,0.25677,R,ugm-3,0.44168,R,ugm-3,0.83538,R,ugm-3,77.82997,R,ugm-3,1.61284,R,ugm-3
01-01-2018,13:00,0.35306,R,ugm-3,1.42426,R,ugm-3,1.96561,R,ugm-3,74.57392,R,ugm-3,1.74187,R,ugm-3
01-01-2018,14:00,0.41725,R,ugm-3,2.45606,R,ugm-3,3.09583,R,ugm-3,72.15815,R,ugm-3,1.35479,R,ugm-3
01-01-2018,15:00,0.35306,R,ugm-3,1.52254,R,ugm-3,2.06389,R,ugm-3,77.19976,R,ugm-3,1.61284,R,ugm-3
01-01-2018,16:00,0.35306,R,ugm-3,2.30879,R,ugm-3,2.85013,R,ugm-3,72.15815,R,ugm-3,1.54833,R,ugm-3
01-01-2018,17:00,0.25677,R,ugm-3,3.04611,R,ugm-3,3.43981,R,ugm-3,66.22374,R,ugm-3,1.16125,R,ugm-3
01-01-2018,18:00,0.25677,R,ugm-3,8.10755,R,ugm-3,8.50125,R,ugm-3,61.07709,R,ugm-3,1.22576,R,ugm-3
01-01-2018,19:00,0.25677,R,ugm-3,5.69968,R,ugm-3,6.09338,R,ugm-3,64.22810,R,ugm-3,0.90319,R,ugm-3
01-01-2018,20:00,0.32096,R,ugm-3,6.19093,R,ugm-3,6.68306,R,ugm-3,64.22810,R,ugm-3,0.58062,R,ugm-3
01-01-2018,21:00,0.28886,R,ugm-3,2.35807,R,ugm-3,2.80099,R,ugm-3,71.05529,R,ugm-3,0.58062,R,ugm-3
01-01-2018,22:00,0.32096,R,ugm-3,0.88379,R,ugm-3,1.37593,R,ugm-3,71.42291,R,ugm-3,0.32257,R,ugm-3
01-01-2018,23:00,0.25677,R,ugm-3,0.93308,R,ugm-3,1.32679,R,ugm-3,70.00496,R,ugm-3,0.45160,R,ugm-3
01-01-2018,24:00,0.22467,R,ugm-3,1.08057,R,ugm-3,1.42507,R,ugm-3,68.42945,R,ugm-3,0.12903,R,ugm-3
02-01-2018,01:00,0.29971,R,ugm-3,3.73525,R,ugm-3,4.19479,R,ugm-3,64.14058,R,ugm-3,0.43005,R,ugm-3
02-01-2018,02:00,0.35323,R,ugm-3,1.62133,R,ugm-3,2.16294,R,ugm-3,64.42066,R,ugm-3,0.43005,R,ugm-3
02-01-2018,03:00,0.32112,R,ugm-3,4.07930,R,ugm-3,4.57167,R,ugm-3,60.86702,R,ugm-3,0.32254,R,ugm-3
02-01-2018,04:00,0.28900,R,ugm-3,2.85044,R,ugm-3,3.29357,R,ugm-3,61.81233,R,ugm-3,0.19353,R,ugm-3
02-01-2018,05:00,0.28900,R,ugm-3,7.32379,R,ugm-3,7.76692,R,ugm-3,55.82541,R,ugm-3,0.58057,R,ugm-3
02-01-2018,06:00,0.25689,R,ugm-3,4.91514,R,ugm-3,5.30904,R,ugm-3,60.44689,R,ugm-3,0.83860,R,ugm-3
02-01-2018,07:00,0.25689,R,ugm-3,3.04715,R,ugm-3,3.44104,R,ugm-3,63.65042,R,ugm-3,0.70959,R,ugm-3
02-01-2018,08:00,0.32112,R,ugm-3,3.93183,R,ugm-3,4.42420,R,ugm-3,56.87574,R,ugm-3,0.70959,R,ugm-3
02-01-2018,09:00,0.19267,R,ugm-3,1.37594,R,ugm-3,1.67136,R,ugm-3,63.86048,R,ugm-3,0.58057,R,ugm-3
02-01-2018,10:00,0.44956,R,ugm-3,1.27699,R,ugm-3,1.96631,R,ugm-3,71.42291,R,ugm-3,0.51606,R,ugm-3
02-01-2018,11:00,0.19267,R,ugm-3,1.17931,R,ugm-3,1.47473,R,ugm-3,72.68331,R,ugm-3,0.58057,R,ugm-3
02-01-2018,12:00,0.38534,R,ugm-3,1.22799,R,ugm-3,1.81884,R,ugm-3,70.32006,R,ugm-3,0.90311,R,ugm-3
02-01-2018,13:00,0.35323,R,ugm-3,2.01460,R,ugm-3,2.55620,R,ugm-3,74.04875,R,ugm-3,1.09663,R,ugm-3
02-01-2018,14:00,0.16056,R,ugm-3,1.96591,R,ugm-3,2.21210,R,ugm-3,76.93718,R,ugm-3,1.09663,R,ugm-3
02-01-2018,15:00,0.28900,R,ugm-3,1.52318,R,ugm-3,1.96631,R,ugm-3,74.04875,R,ugm-3,1.09663,R,ugm-3
02-01-2018,16:00,0.32112,R,ugm-3,1.96552,R,ugm-3,2.45789,R,ugm-3,73.20848,R,ugm-3,1.09663,R,ugm-3
02-01-2018,17:00,0.19267,R,ugm-3,1.42510,R,ugm-3,1.72052,R,ugm-3,73.15597,R,ugm-3,1.09663,R,ugm-3
02-01-2018,18:00,0.32112,R,ugm-3,1.42478,R,ugm-3,1.91715,R,ugm-3,73.62862,R,ugm-3,1.16114,R,ugm-3
02-01-2018,19:00,0.22478,R,ugm-3,0.63850,R,ugm-3,0.98316,R,ugm-3,76.77963,R,ugm-3,1.22565,R,ugm-3
02-01-2018,20:00,0.32112,R,ugm-3,1.71973,R,ugm-3,2.21210,R,ugm-3,74.83651,R,ugm-3,1.09663,R,ugm-3
02-01-2018,21:00,0.35323,R,ugm-3,1.42470,R,ugm-3,1.96631,R,ugm-3,73.31352,R,ugm-3,1.41917,R,ugm-3
02-01-2018,22:00,0.22478,R,ugm-3,1.42502,R,ugm-3,1.76968,R,ugm-3,72.15815,R,ugm-3,1.61269,R,ugm-3
02-01-2018,23:00,0.22478,R,ugm-3,2.40817,R,ugm-3,2.75283,R,ugm-3,68.95462,R,ugm-3,1.99974,R,ugm-3
02-01-2018,24:00,0.25689,R,ugm-3,1.96568,R,ugm-3,2.35957,R,ugm-3,67.48415,R,ugm-3,1.93523,R,ugm-3
03-01-2018,01:00,0.25702,R,ugm-3,1.04839,R,ugm-3,1.44247,R,ugm-3,70.65266,R,ugm-3,1.63405,R,ugm-3
03-01-2018,02:00,0.35340,R,ugm-3,1.08092,R,ugm-3,1.62279,R,ugm-3,75.69428,R,ugm-3,1.61255,R,ugm-3
03-01-2018,03:00,0.25702,R,ugm-3,0.58942,R,ugm-3,0.98351,R,ugm-3,78.30262,R,ugm-3,1.48354,R,ugm-3
03-01-2018,04:00,0.32127,R,ugm-3,-0.29591,R,ugm-3,0.19670,R,ugm-3,84.44709,R,ugm-3,1.41904,R,ugm-3
03-01-2018,05:00,0.22489,R,ugm-3,-0.09895,R,ugm-3,0.24588,R,ugm-3,88.33333,R,ugm-3,1.48354,R,ugm-3
03-01-2018,06:00,0.19276,R,ugm-3,0.29454,R,ugm-3,0.59010,R,ugm-3,86.96790,R,ugm-3,1.35454,R,ugm-3
03-01-2018,07:00,0.16064,R,ugm-3,1.47483,R,ugm-3,1.72114,R,ugm-3,82.24138,R,ugm-3,1.48354,R,ugm-3
03-01-2018,08:00,0.28914,R,ugm-3,2.50717,R,ugm-3,2.95052,R,ugm-3,80.77091,R,ugm-3,1.35454,R,ugm-3
03-01-2018,09:00,0.41765,R,ugm-3,2.65436,R,ugm-3,3.29474,R,ugm-3,80.03567,R,ugm-3,0.96753,R,ugm-3
03-01-2018,10:00,0.61041,R,ugm-3,4.91591,R,ugm-3,5.85186,R,ugm-3,76.09691,R,ugm-3,0.83852,R,ugm-3
03-01-2018,11:00,0.44978,R,ugm-3,3.19520,R,ugm-3,3.88485,R,ugm-3,77.19976,R,ugm-3,1.03203,R,ugm-3
03-01-2018,12:00,0.61041,R,ugm-3,3.58817,R,ugm-3,4.52413,R,ugm-3,76.77963,R,ugm-3,0.90302,R,ugm-3
03-01-2018,13:00,0.44978,R,ugm-3,1.71994,R,ugm-3,2.40959,R,ugm-3,78.61772,R,ugm-3,0.90302,R,ugm-3
03-01-2018,14:00,0.41765,R,ugm-3,1.76920,R,ugm-3,2.40959,R,ugm-3,78.19758,R,ugm-3,0.70952,R,ugm-3
03-01-2018,15:00,0.51403,R,ugm-3,2.60492,R,ugm-3,3.39309,R,ugm-3,76.51704,R,ugm-3,0.77402,R,ugm-3
03-01-2018,16:00,0.41765,R,ugm-3,3.14611,R,ugm-3,3.78650,R,ugm-3,77.56738,R,ugm-3,0.58052,R,ugm-3
03-01-2018,17:00,0.22489,R,ugm-3,2.50734,R,ugm-3,2.85217,R,ugm-3,77.46235,R,ugm-3,0.77402,R,ugm-3
03-01-2018,18:00,0.44978,R,ugm-3,1.27736,R,ugm-3,1.96701,R,ugm-3,79.87812,R,ugm-3,0.19351,R,ugm-3
03-01-2018,19:00,0.32127,R,ugm-3,0.58925,R,ugm-3,1.08186,R,ugm-3,82.87158,R,ugm-3,0.19351,R,ugm-3
03-01-2018,20:00,0.16064,R,ugm-3,0.83555,R,ugm-3,1.08186,R,ugm-3,82.45145,R,ugm-3,0.25801,R,ugm-3
03-01-2018,21:00,0.41765,R,ugm-3,1.32662,R,ugm-3,1.96701,R,ugm-3,80.77091,R,ugm-3,0.45151,R,ugm-3
03-01-2018,22:00,0.38552,R,ugm-3,0.98248,R,ugm-3,1.57361,R,ugm-3,81.50614,R,ugm-3,0.25801,R,ugm-3
03-01-2018,23:00,0.28914,R,ugm-3,2.01542,R,ugm-3,2.45876,R,ugm-3,87.54558,R,ugm-3,0.38701,R,ugm-3
03-01-2018,24:00,0.28914,R,ugm-3,1.27779,R,ugm-3,1.72114,R,ugm-3,89.54122,R,ugm-3,0.25801,R,ugm-3
04-01-2018,01:00,0.21428,R,ugm-3,0.26175,R,ugm-3,0.59031,R,ugm-3,88.36835,R,ugm-3,0.08600,R,ugm-3
04-01-2018,02:00,0.21428,R,ugm-3,0.52411,R,ugm-3,0.85268,R,ugm-3,86.44273,R,ugm-3,0.32248,R,ugm-3
04-01-2018,03:00,0.25714,R,ugm-3,0.44200,R,ugm-3,0.83628,R,ugm-3,84.65716,R,ugm-3,0.38698,R,ugm-3
04-01-2018,04:00,0.22500,R,ugm-3,-0.04983,R,ugm-3,0.29516,R,ugm-3,84.44709,R,ugm-3,0.51597,R,ugm-3
04-01-2018,05:00,0.32143,R,ugm-3,0.14666,R,ugm-3,0.63951,R,ugm-3,78.67024,R,ugm-3,0.64496,R,ugm-3
04-01-2018,06:00,0.35357,R,ugm-3,1.76994,R,ugm-3,2.31206,R,ugm-3,73.83869,R,ugm-3,0.83845,R,ugm-3
04-01-2018,07:00,0.28928,R,ugm-3,3.24590,R,ugm-3,3.68946,R,ugm-3,68.06183,R,ugm-3,1.03193,R,ugm-3
04-01-2018,08:00,0.35357,R,ugm-3,2.11428,R,ugm-3,2.65641,R,ugm-3,62.49505,R,ugm-3,1.16092,R,ugm-3
04-01-2018,09:00,0.41785,R,ugm-3,3.63908,R,ugm-3,4.27978,R,ugm-3,59.65914,R,ugm-3,1.28992,R,ugm-3
04-01-2018,10:00,0.22500,R,ugm-3,2.06546,R,ugm-3,2.41045,R,ugm-3,65.17341,R,ugm-3,1.35441,R,ugm-3
04-01-2018,11:00,0.32143,R,ugm-3,1.13052,R,ugm-3,1.62336,R,ugm-3,67.90428,R,ugm-3,1.35441,R,ugm-3
04-01-2018,12:00,0.32143,R,ugm-3,0.98294,R,ugm-3,1.47578,R,ugm-3,71.00278,R,ugm-3,1.22542,R,ugm-3
04-01-2018,13:00,0.12857,R,ugm-3,0.09802,R,ugm-3,0.29516,R,ugm-3,77.14725,R,ugm-3,1.35441,R,ugm-3
04-01-2018,14:00,0.32143,R,ugm-3,0.09747,R,ugm-3,0.59031,R,ugm-3,80.24574,R,ugm-3,1.28992,R,ugm-3
04-01-2018,15:00,0.25714,R,ugm-3,0.73716,R,ugm-3,1.13144,R,ugm-3,81.82125,R,ugm-3,0.96744,R,ugm-3
04-01-2018,16:00,0.28928,R,ugm-3,1.17980,R,ugm-3,1.62336,R,ugm-3,83.39675,R,ugm-3,0.96744,R,ugm-3
04-01-2018,17:00,0.19286,R,ugm-3,2.85264,R,ugm-3,3.14834,R,ugm-3,82.45145,R,ugm-3,1.22542,R,ugm-3
04-01-2018,18:00,0.12857,R,ugm-3,2.55766,R,ugm-3,2.75480,R,ugm-3,83.08165,R,ugm-3,1.22542,R,ugm-3
04-01-2018,19:00,0.16071,R,ugm-3,2.16403,R,ugm-3,2.41045,R,ugm-3,82.18886,R,ugm-3,1.03193,R,ugm-3
04-01-2018,20:00,0.35357,R,ugm-3,0.83527,R,ugm-3,1.37740,R,ugm-3,82.76655,R,ugm-3,0.64496,R,ugm-3
04-01-2018,21:00,0.32143,R,ugm-3,1.37648,R,ugm-3,1.86933,R,ugm-3,81.97880,R,ugm-3,0.64496,R,ugm-3
04-01-2018,22:00,0.28928,R,ugm-3,1.67173,R,ugm-3,2.11529,R,ugm-3,82.29390,R,ugm-3,0.77395,R,ugm-3
04-01-2018,23:00,0.16071,R,ugm-3,1.81968,R,ugm-3,2.06610,R,ugm-3,79.77309,R,ugm-3,0.77395,R,ugm-3
04-01-2018,24:00,0.22500,R,ugm-3,1.08160,R,ugm-3,1.42659,R,ugm-3,83.81689,R,ugm-3,0.96744,R,ugm-3
05-01-2018,01:00,0.21439,R,ugm-3,1.24601,R,ugm-3,1.57473,R,ugm-3,82.83657,R,ugm-3,0.77388,R,ugm-3
05-01-2018,02:00,0.25726,R,ugm-3,0.06483,R,ugm-3,0.45930,R,ugm-3,88.29832,R,ugm-3,0.64490,R,ugm-3
05-01-2018,03:00,0.25726,R,ugm-3,0.63895,R,ugm-3,1.03342,R,ugm-3,87.07293,R,ugm-3,0.58041,R,ugm-3
05-01-2018,04:00,0.35374,R,ugm-3,0.14656,R,ugm-3,0.68895,R,ugm-3,88.91102,R,ugm-3,0.64490,R,ugm-3
05-01-2018,05:00,0.28942,R,ugm-3,0.04833,R,ugm-3,0.49210,R,ugm-3,86.81035,R,ugm-3,0.45143,R,ugm-3
05-01-2018,06:00,0.25726,R,ugm-3,0.34369,R,ugm-3,0.73816,R,ugm-3,87.49307,R,ugm-3,0.58041,R,ugm-3
05-01-2018,07:00,0.19295,R,ugm-3,0.78678,R,ugm-3,1.08263,R,ugm-3,86.65280,R,ugm-3,0.83837,R,ugm-3
05-01-2018,08:00,0.16079,R,ugm-3,2.70608,R,ugm-3,2.95263,R,ugm-3,83.81689,R,ugm-3,1.09633,R,ugm-3
05-01-2018,09:00,0.28942,R,ugm-3,3.98516,R,ugm-3,4.42894,R,ugm-3,83.18668,R,ugm-3,0.96735,R,ugm-3
05-01-2018,10:00,0.35374,R,ugm-3,2.36102,R,ugm-3,2.90341,R,ugm-3,84.39457,R,ugm-3,0.90286,R,ugm-3
05-01-2018,11:00,0.25726,R,ugm-3,1.72158,R,ugm-3,2.11605,R,ugm-3,87.12545,R,ugm-3,0.90286,R,ugm-3
05-01-2018,12:00,0.45021,R,ugm-3,1.67178,R,ugm-3,2.36210,R,ugm-3,87.96572,R,ugm-3,0.90286,R,ugm-3
05-01-2018,13:00,0.41805,R,ugm-3,1.32741,R,ugm-3,1.96842,R,ugm-3,88.59592,R,ugm-3,0.90286,R,ugm-3
05-01-2018,14:00,0.45021,R,ugm-3,0.98284,R,ugm-3,1.67315,R,ugm-3,89.33115,R,ugm-3,0.77388,R,ugm-3
05-01-2018,15:00,0.38590,R,ugm-3,0.73698,R,ugm-3,1.32868,R,ugm-3,88.96354,R,ugm-3,0.83837,R,ugm-3
05-01-2018,16:00,0.41805,R,ugm-3,1.52425,R,ugm-3,2.16526,R,ugm-3,86.81035,R,ugm-3,0.64490,R,ugm-3
05-01-2018,17:00,0.22511,R,ugm-3,1.86931,R,ugm-3,2.21447,R,ugm-3,84.76219,R,ugm-3,0.83837,R,ugm-3
05-01-2018,18:00,0.12863,R,ugm-3,1.96802,R,ugm-3,2.16526,R,ugm-3,84.76219,R,ugm-3,0.70939,R,ugm-3
05-01-2018,19:00,0.19295,R,ugm-3,2.06625,R,ugm-3,2.36210,R,ugm-3,81.55866,R,ugm-3,0.58041,R,ugm-3
05-01-2018,20:00,0.25726,R,ugm-3,6.15052,R,ugm-3,6.54498,R,ugm-3,75.36167,R,ugm-3,0.83837,R,ugm-3
05-01-2018,21:00,0.19295,R,ugm-3,1.42652,R,ugm-3,1.72236,R,ugm-3,79.77309,R,ugm-3,0.58041,R,ugm-3
05-01-2018,22:00,0.25726,R,ugm-3,1.52474,R,ugm-3,1.91921,R,ugm-3,65.43599,R,ugm-3,0.51592,R,ugm-3
05-01-2018,23:00,0.35374,R,ugm-3,0.39261,R,ugm-3,0.93500,R,ugm-3,63.17777,R,ugm-3,0.06449,R,ugm-3
05-01-2018,24:00,0.32158,R,ugm-3,0.34350,R,ugm-3,0.83658,R,ugm-3,69.26972,R,ugm-3,0.06449,R,ugm-3
06-01-2018,01:00,0.17159,R,ugm-3,0.45891,R,ugm-3,0.72201,R,ugm-3,65.19091,R,ugm-3,1.46164,R,ugm-3
06-01-2018,02:00,0.21449,R,ugm-3,0.91823,R,ugm-3,1.24711,R,ugm-3,69.74237,R,ugm-3,1.54761,R,ugm-3
06-01-2018,03:00,0.35391,R,ugm-3,1.82029,R,ugm-3,2.36294,R,ugm-3,69.58482,R,ugm-3,1.61210,R,ugm-3
06-01-2018,04:00,0.35391,R,ugm-3,0.93419,R,ugm-3,1.47684,R,ugm-3,73.68113,R,ugm-3,1.67658,R,ugm-3
06-01-2018,05:00,0.28956,R,ugm-3,0.04829,R,ugm-3,0.49228,R,ugm-3,72.00060,R,ugm-3,1.41865,R,ugm-3
06-01-2018,06:00,0.35391,R,ugm-3,0.73727,R,ugm-3,1.27993,R,ugm-3,67.32660,R,ugm-3,1.35416,R,ugm-3
06-01-2018,07:00,0.22522,R,ugm-3,1.37765,R,ugm-3,1.72298,R,ugm-3,63.75545,R,ugm-3,1.48313,R,ugm-3
06-01-2018,08:00,0.25739,R,ugm-3,2.65748,R,ugm-3,3.05213,R,ugm-3,60.81451,R,ugm-3,1.54761,R,ugm-3
06-01-2018,09:00,0.48260,R,ugm-3,11.51778,R,ugm-3,12.25776,R,ugm-3,35.81649,R,ugm-3,1.61210,R,ugm-3
06-01-2018,10:00,1.64085,R,ugm-3,15.59995,R,ugm-3,18.11589,R,ugm-3,27.30876,R,ugm-3,1.74106,R,ugm-3
06-01-2018,11:00,2.34867,R,ugm-3,16.28686,R,ugm-3,19.88809,R,ugm-3,25.83829,R,ugm-3,1.22519,R,ugm-3
06-01-2018,12:00,2.28432,R,ugm-3,16.33629,R,ugm-3,19.83887,R,ugm-3,33.19065,R,ugm-3,1.41865,R,ugm-3
06-01-2018,13:00,1.57650,R,ugm-3,12.89262,R,ugm-3,15.30989,R,ugm-3,40.64804,R,ugm-3,1.35416,R,ugm-3
06-01-2018,14:00,1.41563,R,ugm-3,11.02248,R,ugm-3,13.19309,R,ugm-3,44.90190,R,ugm-3,1.28968,R,ugm-3
06-01-2018,15:00,0.86869,R,ugm-3,10.77811,R,ugm-3,12.11008,R,ugm-3,48.10543,R,ugm-3,1.22519,R,ugm-3
06-01-2018,16:00,0.41826,R,ugm-3,10.04115,R,ugm-3,10.68247,R,ugm-3,50.94134,R,ugm-3,1.09623,R,ugm-3
06-01-2018,17:00,0.28956,R,ugm-3,7.33403,R,ugm-3,7.77802,R,ugm-3,56.50813,R,ugm-3,0.96726,R,ugm-3
06-01-2018,18:00,0.22522,R,ugm-3,5.06975,R,ugm-3,5.41508,R,ugm-3,54.03983,R,ugm-3,0.96726,R,ugm-3
06-01-2018,19:00,0.22522,R,ugm-3,2.95295,R,ugm-3,3.29827,R,ugm-3,48.73563,R,ugm-3,1.09623,R,ugm-3
06-01-2018,20:00,0.25739,R,ugm-3,3.29744,R,ugm-3,3.69210,R,ugm-3,41.80341,R,ugm-3,0.51587,R,ugm-3
06-01-2018,21:00,0.25739,R,ugm-3,2.80516,R,ugm-3,3.19982,R,ugm-3,43.58898,R,ugm-3,0.45139,R,ugm-3
06-01-2018,22:00,0.28956,R,ugm-3,3.05120,R,ugm-3,3.49519,R,ugm-3,42.95878,R,ugm-3,0.06448,R,ugm-3
06-01-2018,23:00,0.32174,R,ugm-3,2.75573,R,ugm-3,3.24905,R,ugm-3,45.79469,R,ugm-3,0.00000,R,ugm-3
06-01-2018,24:00,0.28956,R,ugm-3,3.49425,R,ugm-3,3.93824,R,ugm-3,54.14487,R,ugm-3,0.00000,R,ugm-3
07-01-2018,01:00,0.25751,R,ugm-3,2.95385,R,ugm-3,3.34869,R,ugm-3,59.09896,R,ugm-3,0.60179,R,ugm-3
07-01-2018,02:00,0.21459,R,ugm-3,2.49437,R,ugm-3,2.82341,R,ugm-3,58.74884,R,ugm-3,0.70926,R,ugm-3
07-01-2018,03:00,0.19313,R,ugm-3,2.51086,R,ugm-3,2.80699,R,ugm-3,55.45779,R,ugm-3,0.77373,R,ugm-3
07-01-2018,04:00,0.32189,R,ugm-3,1.96872,R,ugm-3,2.46228,R,ugm-3,53.93480,R,ugm-3,0.51582,R,ugm-3
07-01-2018,05:00,0.28970,R,ugm-3,1.67336,R,ugm-3,2.11756,R,ugm-3,55.51031,R,ugm-3,0.51582,R,ugm-3
07-01-2018,06:00,0.19313,R,ugm-3,1.87067,R,ugm-3,2.16680,R,ugm-3,54.14487,R,ugm-3,0.45135,R,ugm-3
07-01-2018,07:00,0.38627,R,ugm-3,2.36246,R,ugm-3,2.95473,R,ugm-3,50.41617,R,ugm-3,0.45135,R,ugm-3
07-01-2018,08:00,0.25751,R,ugm-3,2.70762,R,ugm-3,3.10247,R,ugm-3,40.85811,R,ugm-3,0.25791,R,ugm-3
07-01-2018,09:00,0.41846,R,ugm-3,3.05179,R,ugm-3,3.69341,R,ugm-3,38.75743,R,ugm-3,0.32239,R,ugm-3
07-01-2018,10:00,0.64378,R,ugm-3,3.74045,R,ugm-3,4.72757,R,ugm-3,37.02438,R,ugm-3,0.32239,R,ugm-3
07-01-2018,11:00,0.77254,R,ugm-3,2.90284,R,ugm-3,4.08738,R,ugm-3,40.33294,R,ugm-3,0.38687,R,ugm-3
07-01-2018,12:00,1.06224,R,ugm-3,3.44355,R,ugm-3,5.07229,R,ugm-3,40.85811,R,ugm-3,0.32239,R,ugm-3
07-01-2018,13:00,1.09443,R,ugm-3,3.68966,R,ugm-3,5.36776,R,ugm-3,44.11415,R,ugm-3,0.51582,R,ugm-3
07-01-2018,14:00,0.83692,R,ugm-3,3.24734,R,ugm-3,4.53059,R,ugm-3,49.57590,R,ugm-3,0.58030,R,ugm-3
07-01-2018,15:00,0.61159,R,ugm-3,3.39585,R,ugm-3,4.33361,R,ugm-3,52.35930,R,ugm-3,0.45135,R,ugm-3
07-01-2018,16:00,0.45065,R,ugm-3,3.98734,R,ugm-3,4.67832,R,ugm-3,55.19521,R,ugm-3,0.45135,R,ugm-3
07-01-2018,17:00,0.19313,R,ugm-3,4.62842,R,ugm-3,4.92455,R,ugm-3,57.24336,R,ugm-3,0.45135,R,ugm-3
07-01-2018,18:00,0.12876,R,ugm-3,4.67788,R,ugm-3,4.87531,R,ugm-3,57.76853,R,ugm-3,0.38687,R,ugm-3
07-01-2018,19:00,0.25751,R,ugm-3,5.31763,R,ugm-3,5.71248,R,ugm-3,53.25208,R,ugm-3,0.38687,R,ugm-3
07-01-2018,20:00,0.25751,R,ugm-3,5.36688,R,ugm-3,5.76172,R,ugm-3,49.68094,R,ugm-3,0.19343,R,ugm-3
07-01-2018,21:00,0.28970,R,ugm-3,7.28734,R,ugm-3,7.73155,R,ugm-3,44.63932,R,ugm-3,0.38687,R,ugm-3
07-01-2018,22:00,0.25751,R,ugm-3,8.86331,R,ugm-3,9.25816,R,ugm-3,36.34166,R,ugm-3,0.32239,R,ugm-3
07-01-2018,23:00,0.22532,R,ugm-3,9.84833,R,ugm-3,10.19382,R,ugm-3,31.03746,R,ugm-3,0.32239,R,ugm-3
07-01-2018,24:00,0.16095,R,ugm-3,9.30685,R,ugm-3,9.55363,R,ugm-3,29.30440,R,ugm-3,0.19343,R,ugm-3
08-01-2018,01:00,0.30058,R,ugm-3,8.14374,R,ugm-3,8.60462,R,ugm-3,29.19937,R,ugm-3,0.17193,R,ugm-3
08-01-2018,02:00,0.35425,R,ugm-3,8.52123,R,ugm-3,9.06441,R,ugm-3,29.33941,R,ugm-3,0.25789,R,ugm-3
08-01-2018,03:00,0.32205,R,ugm-3,7.43756,R,ugm-3,7.93135,R,ugm-3,32.14031,R,ugm-3,0.25789,R,ugm-3
08-01-2018,04:00,0.12882,R,ugm-3,6.60079,R,ugm-3,6.79830,R,ugm-3,35.76397,R,ugm-3,0.19342,R,ugm-3
08-01-2018,05:00,0.32205,R,ugm-3,7.24051,R,ugm-3,7.73430,R,ugm-3,33.97840,R,ugm-3,0.25789,R,ugm-3
08-01-2018,06:00,0.28984,R,ugm-3,7.04357,R,ugm-3,7.48799,R,ugm-3,33.82085,R,ugm-3,0.32236,R,ugm-3
08-01-2018,07:00,0.22543,R,ugm-3,7.73349,R,ugm-3,8.07914,R,ugm-3,31.19501,R,ugm-3,0.45131,R,ugm-3
08-01-2018,08:00,0.32205,R,ugm-3,8.17650,R,ugm-3,8.67030,R,ugm-3,29.77705,R,ugm-3,0.58025,R,ugm-3
08-01-2018,09:00,0.41866,R,ugm-3,8.32394,R,ugm-3,8.96588,R,ugm-3,28.56916,R,ugm-3,0.64472,R,ugm-3
08-01-2018,10:00,0.48307,R,ugm-3,7.83108,R,ugm-3,8.57177,R,ugm-3,28.67420,R,ugm-3,0.45131,R,ugm-3
08-01-2018,11:00,0.64409,R,ugm-3,10.34291,R,ugm-3,11.33051,R,ugm-3,26.62604,R,ugm-3,0.51578,R,ugm-3
08-01-2018,12:00,1.06275,R,ugm-3,14.03613,R,ugm-3,15.66566,R,ugm-3,22.79231,R,ugm-3,1.28944,R,ugm-3
08-01-2018,13:00,1.38480,R,ugm-3,16.30106,R,ugm-3,18.42439,R,ugm-3,20.42905,R,ugm-3,1.48285,R,ugm-3
08-01-2018,14:00,1.41700,R,ugm-3,15.41421,R,ugm-3,17.58691,R,ugm-3,20.74415,R,ugm-3,1.54733,R,ugm-3
08-01-2018,15:00,1.25598,R,ugm-3,16.84342,R,ugm-3,18.76923,R,ugm-3,18.22335,R,ugm-3,1.74074,R,ugm-3
08-01-2018,16:00,0.74070,R,ugm-3,16.40192,R,ugm-3,17.53765,R,ugm-3,18.27586,R,ugm-3,1.74074,R,ugm-3
08-01-2018,17:00,0.35425,R,ugm-3,15.31953,R,ugm-3,15.86271,R,ugm-3,18.69600,R,ugm-3,1.61180,R,ugm-3
08-01-2018,18:00,0.32205,R,ugm-3,15.56596,R,ugm-3,16.05976,R,ugm-3,17.80321,R,ugm-3,1.41838,R,ugm-3
08-01-2018,19:00,0.41866,R,ugm-3,17.24056,R,ugm-3,17.88249,R,ugm-3,15.75505,R,ugm-3,1.41838,R,ugm-3
08-01-2018,20:00,0.25764,R,ugm-3,16.64998,R,ugm-3,17.04502,R,ugm-3,15.80757,R,ugm-3,1.48285,R,ugm-3
08-01-2018,21:00,0.41866,R,ugm-3,16.40309,R,ugm-3,17.04502,R,ugm-3,15.01982,R,ugm-3,1.61180,R,ugm-3
08-01-2018,22:00,0.35425,R,ugm-3,18.17679,R,ugm-3,18.71997,R,ugm-3,14.59968,R,ugm-3,1.67627,R,ugm-3
08-01-2018,23:00,0.32205,R,ugm-3,17.48722,R,ugm-3,17.98102,R,ugm-3,15.91260,R,ugm-3,1.67627,R,ugm-3
08-01-2018,24:00,0.45086,R,ugm-3,19.50654,R,ugm-3,20.19786,R,ugm-3,12.86663,R,ugm-3,1.54733,R,ugm-3
09-01-2018,01:00,0.51552,R,ugm-3,18.52755,R,ugm-3,19.31800,R,ugm-3,13.09420,R,ugm-3,,,
09-01-2018,02:00,0.42960,R,ugm-3,19.44778,R,ugm-3,20.10649,R,ugm-3,10.29330,R,ugm-3,0.32233,R,ugm-3
09-01-2018,03:00,0.38664,R,ugm-3,18.18308,R,ugm-3,18.77592,R,ugm-3,11.08105,R,ugm-3,0.38680,R,ugm-3
09-01-2018,04:00,0.51552,R,ugm-3,19.75956,R,ugm-3,20.55002,R,ugm-3,8.40270,R,ugm-3,0.38680,R,ugm-3
09-01-2018,05:00,0.54774,R,ugm-3,23.11052,R,ugm-3,23.95038,R,ugm-3,4.98910,R,ugm-3,0.32233,R,ugm-3
09-01-2018,06:00,0.90216,R,ugm-3,26.90378,R,ugm-3,28.28708,R,ugm-3,3.25604,R,ugm-3,0.51573,R,ugm-3
09-01-2018,07:00,0.32220,R,ugm-3,21.58368,R,ugm-3,22.07772,R,ugm-3,6.98474,R,ugm-3,0.83806,R,ugm-3
09-01-2018,08:00,0.35442,R,ugm-3,19.56306,R,ugm-3,20.10649,R,ugm-3,7.93004,R,ugm-3,1.09592,R,ugm-3
09-01-2018,09:00,1.03104,R,ugm-3,21.97523,R,ugm-3,23.55614,R,ugm-3,6.45957,R,ugm-3,0.70913,R,ugm-3
09-01-2018,10:00,1.54656,R,ugm-3,19.26283,R,ugm-3,21.63419,R,ugm-3,8.08759,R,ugm-3,0.96699,R,ugm-3
09-01-2018,11:00,2.22318,R,ugm-3,18.32392,R,ugm-3,21.73275,R,ugm-3,8.24515,R,ugm-3,1.03146,R,ugm-3
09-01-2018,12:00,1.51434,R,ugm-3,15.46835,R,ugm-3,17.79031,R,ugm-3,12.86663,R,ugm-3,1.16039,R,ugm-3
09-01-2018,13:00,1.25658,R,ugm-3,14.53300,R,ugm-3,16.45973,R,ugm-3,17.06798,R,ugm-3,1.48272,R,ugm-3
09-01-2018,14:00,0.61218,R,ugm-3,8.17825,R,ugm-3,9.11691,R,ugm-3,30.82739,R,ugm-3,0.96699,R,ugm-3
09-01-2018,15:00,0.45108,R,ugm-3,9.16448,R,ugm-3,9.85612,R,ugm-3,33.40071,R,ugm-3,1.03146,R,ugm-3
09-01-2018,16:00,0.28998,R,ugm-3,9.51006,R,ugm-3,9.95469,R,ugm-3,39.38763,R,ugm-3,1.16039,R,ugm-3
09-01-2018,17:00,0.28998,R,ugm-3,8.82013,R,ugm-3,9.26476,R,ugm-3,43.79905,R,ugm-3,0.96699,R,ugm-3
09-01-2018,18:00,0.32220,R,ugm-3,7.58799,R,ugm-3,8.08202,R,ugm-3,46.00476,R,ugm-3,1.03146,R,ugm-3
09-01-2018,19:00,0.32220,R,ugm-3,10.19986,R,ugm-3,10.69390,R,ugm-3,41.38327,R,ugm-3,1.35379,R,ugm-3
09-01-2018,20:00,0.22554,R,ugm-3,10.93944,R,ugm-3,11.28526,R,ugm-3,34.81867,R,ugm-3,1.54718,R,ugm-3
09-01-2018,21:00,0.32220,R,ugm-3,12.61461,R,ugm-3,13.10864,R,ugm-3,27.62386,R,ugm-3,1.61165,R,ugm-3
09-01-2018,22:00,0.28998,R,ugm-3,9.55934,R,ugm-3,10.00397,R,ugm-3,32.50793,R,ugm-3,1.22485,R,ugm-3
09-01-2018,23:00,0.41886,R,ugm-3,10.49518,R,ugm-3,11.13742,R,ugm-3,28.88427,R,ugm-3,1.16039,R,ugm-3
09-01-2018,24:00,0.25776,R,ugm-3,9.90442,R,ugm-3,10.29965,R,ugm-3,28.72671,R,ugm-3,1.22485,R,ugm-3
10-01-2018,01:00,0.21490,R,ugm-3,10.18743,R,ugm-3,10.51695,R,ugm-3,31.08997,R,ugm-3,1.03136,R,ugm-3
10-01-2018,02:00,0.22565,R,ugm-3,9.06996,R,ugm-3,9.41595,R,ugm-3,37.32197,R,ugm-3,0.90244,R,ugm-3
10-01-2018,03:00,0.25788,R,ugm-3,6.35843,R,ugm-3,6.75385,R,ugm-3,46.89754,R,ugm-3,0.90244,R,ugm-3
10-01-2018,04:00,0.19341,R,ugm-3,4.28817,R,ugm-3,4.58473,R,ugm-3,61.18213,R,ugm-3,0.83798,R,ugm-3
10-01-2018,05:00,0.35459,R,ugm-3,3.69595,R,ugm-3,4.23964,R,ugm-3,75.41419,R,ugm-3,0.77352,R,ugm-3
10-01-2018,06:00,0.32236,R,ugm-3,2.11853,R,ugm-3,2.61280,R,ugm-3,79.77309,R,ugm-3,0.83798,R,ugm-3
10-01-2018,07:00,0.38683,R,ugm-3,2.95634,R,ugm-3,3.54947,R,ugm-3,77.98752,R,ugm-3,0.77352,R,ugm-3
10-01-2018,08:00,0.29012,R,ugm-3,4.28778,R,ugm-3,4.73263,R,ugm-3,73.99624,R,ugm-3,0.70906,R,ugm-3
10-01-2018,09:00,0.41906,R,ugm-3,7.93533,R,ugm-3,8.57788,R,ugm-3,66.32878,R,ugm-3,0.96690,R,ugm-3
10-01-2018,10:00,1.22495,R,ugm-3,13.05912,R,ugm-3,14.93735,R,ugm-3,56.08799,R,ugm-3,1.41812,R,ugm-3
10-01-2018,11:00,2.32096,R,ugm-3,13.99140,R,ugm-3,17.55015,R,ugm-3,54.72255,R,ugm-3,1.48258,R,ugm-3
10-01-2018,12:00,1.48284,R,ugm-3,8.71985,R,ugm-3,10.99349,R,ugm-3,65.59354,R,ugm-3,1.41812,R,ugm-3
10-01-2018,13:00,1.19272,R,ugm-3,7.58715,R,ugm-3,9.41595,R,ugm-3,69.68985,R,ugm-3,1.28920,R,ugm-3
10-01-2018,14:00,0.87036,R,ugm-3,5.61651,R,ugm-3,6.95104,R,ugm-3,74.78399,R,ugm-3,1.93380,R,ugm-3
10-01-2018,15:00,0.93483,R,ugm-3,6.20783,R,ugm-3,7.64122,R,ugm-3,72.99842,R,ugm-3,3.67422,R,ugm-3
10-01-2018,16:00,0.48353,R,ugm-3,5.81525,R,ugm-3,6.55666,R,ugm-3,71.16033,R,ugm-3,1.16028,R,ugm-3
10-01-2018,17:00,0.38683,R,ugm-3,6.55511,R,ugm-3,7.14824,R,ugm-3,57.66350,R,ugm-3,1.03136,R,ugm-3
10-01-2018,18:00,0.29012,R,ugm-3,4.53427,R,ugm-3,4.97912,R,ugm-3,59.71165,R,ugm-3,0.64460,R,ugm-3
10-01-2018,19:00,0.38683,R,ugm-3,3.15354,R,ugm-3,3.74666,R,ugm-3,58.55628,R,ugm-3,0.58014,R,ugm-3
10-01-2018,20:00,0.29012,R,ugm-3,2.16796,R,ugm-3,2.61280,R,ugm-3,55.72037,R,ugm-3,0.58014,R,ugm-3
10-01-2018,21:00,0.25788,R,ugm-3,1.37932,R,ugm-3,1.77474,R,ugm-3,58.29370,R,ugm-3,0.45122,R,ugm-3
10-01-2018,22:00,0.32236,R,ugm-3,3.94257,R,ugm-3,4.43684,R,ugm-3,52.35930,R,ugm-3,0.38676,R,ugm-3
10-01-2018,23:00,0.32236,R,ugm-3,9.41466,R,ugm-3,9.90893,R,ugm-3,47.68530,R,ugm-3,0.25784,R,ugm-3
10-01-2018,24:00,0.22565,R,ugm-3,3.69646,R,ugm-3,4.04245,R,ugm-3,55.51031,R,ugm-3,0.38676,R,ugm-3